sat.trackr.live / text

‹ back to catalog

QIANFAN-213

NORAD 69812 · 2026-153N

PAYLOAD ACTIVE UNKNOWN

§ Identity

Operator
Country
PRC
Launch date
2026-07-04
Launch site
TAISC
Launch vehicle
Mass (kg)
RCS (m²)

External: N2YO · Heavens-Above · Gunter

§ Orbital elements

Epoch: 2026-09-19T20:58:41.179872Z

Period
102.74 min
Inclination
88.9974°
Eccentricity
0.0008128
Mean motion
14.01653787 rev/d
Perigee alt
882.2 km
Apogee alt
894.0 km
Semi-major
7,266.2 km
B*
-1.2834e+0
RAAN
351.5120°
Arg perigee
317.1707°
Mean anomaly
42.8838°
Rev number
1,097

§ Raw data

QIANFAN-2131 69812U 26153N   26262.87408773 -.01799611  00000+0 -12834+1 0  99982 69812  88.9974 351.5120 0008128 317.1707  42.8838 14.01653787 10977

JSON: /api/v1/satellites/69812 · /tle

For live sub-satellite position, see the globe view (requires WebGL).

§ Visibility from observer

Set your observer location to see the next 7 days of passes ≥ 10°. The values pass through the URL so the page stays shareable.

No JS? Fill the form by hand. The geolocation button needs JavaScript.